STARLINK-2530, 48303

Orbit data source: Space-Track

STARLINK-2530, 48303 is a payload satellite owned by SpaceX/Seattle (US) in LEO that was launched on Thu, 29 Apr 2021 UTC via an FALCON 9 launch vehicle from the Air Force Eastern Test Range (AFETR). Payload-class satellites include a variety of spacecraft equipped with specific instruments for various scientific and technological missions. These include communications satellites like Starlink; space stations such as the ISS; scientific satellites like the Hubble; Earth observation satellites from companies like Planet Labs, Umbra, and HawkEye 360; GPS; miniature CubeSats for education and research; and military/defense satellites.

Loading next visibility...
Identifier
48303, 2021-036AD
Orbit
LEO
Country
Flag of USUS
Related business
Manufacturer
SpaceX/Seattle
Mission
Operational Commercial Communications
Bus & Motor
STARLINK, Unknown motor
Mass
260 kg wet, ~248 kg dry
Launch date (UTC)
2021-04-29 (4 years ago)
Launch vehicle
FALCON 9
Launch site
Air Force Eastern Test Range (AFETR)
Object type
Payload
Rocket body
Debris
Shape & HBR
Box + 1 Pan, 4.4 m
Radar Cross Section
13.562 m², Large (>1 m²)

Expand to show TLE details & history
Last TLE update: 16 hours ago

TLE from 16 hours ago
0 STARLINK-2530
1 48303U 21036AD  25261.06990982  .00001485  00000-0  11858-3 0  9993
2 48303  53.0535 147.0808 0001409 112.3890 247.7248 15.06391173242140
Epoch: 2025-09-18T01:40Z
TLE epoch observation values (Epoch: 2025-09-18T01:40:40.208Z)
Latitude
-0.00005°
Longitude
124.67644°
Altitude
548.488 km
Speed
7.589 km/s
True Right ascension
09h 48m 19s
True Declination
0° 00' 00"
Sunlit
Object was in daylight at epoch
Visualization orbit readout
Latitude
Unknown
Longitude
Unknown
Altitude
Unknown
Speed
Unknown
Apparent Right ascension
Unknown
Apparent Declination
Unknown
Sunlit
N/A
Visualization observer readout
Local Sidereal Time
10:55:25
Azimuth
Unknown
Elevation
Unknown
Doppler factor
Unknown
Orbital elements
Apogee altitude
548.485 km
Perigee altitude
546.534 km
Semi-major axis
6,925.646 km
Eccentricity
0.00014
Inclination
53.0535°
RAAN
147.0808°
Arg. of periapsis
112.389°
True anomaly
247.70986°
Mean anomaly
247.7248°
Eccentric anomaly
247.71733°
Mean motion
3.76576 °/min
Orbital period
95.6 mins
BSTAR
0.00011858
Loading maneuver chart data...
Computing Atmospheric mass density...
Loading historical data...
Loading historical data...
Loading historical data...
Loading historical data...
Loading historical data...
Loading historical data...
Loading historical data...

Documentation

Showing up to 5 results
|